Location: Huisseau
(47.5933°N, 1.4533°E)
Time: 18:06:03
(UTC+00:00)

CENTAUR R/B - Pass Details

Date: 23 November 2025
Orbit: 633 x 1547 km, 63.4° (Epoch: 06 December)

Event Time Altitude Azimuth Distance (km) Brightness Sun altitude
Rises 20:05:23 0° 230° (SW) 3,249 5.7 -39.2°
Reaches altitude 10° 20:07:35 10° 233° (SW) 2,423 4.9 -39.5°
Enters shadow 20:08:26 15° 235° (SW) 2,116 4.6 -39.7°
